Weather History for Greenville/Spartanburg, SC

Change the Weather History Date:

Sunday, May 4, 2014

  Actual Average Record
Temperature  
Mean Temperature 71 °F 65 °F  
Max Temperature 88 °F 77 °F 91 °F (1887)
Min Temperature 53 °F 54 °F 30 °F (1885)
Degree Days  
Heating Degree Days 0 2  
Month to date heating degree days 9 11  
Since 1 July heating degree days 3181 3017  
Cooling Degree Days 6 3  
Month to date cooling degree days 6 10  
Year to date cooling degree days 48 58  
Growing Degree Days 20 (Base 50)    
Moisture  
Dew Point 46 °F    
Average Humidity 45    
Maximum Humidity 71    
Minimum Humidity 19    
Precipitation  
Precipitation 0.00 in 0.12 in 2.00 in (2002)
Month to date precipitation 0.00 0.49  
Year to date precipitation 15.38 16.16  
Snow  
Snow 0.00 in 0.00 in 0.00 in ()
Month to date snowfall 0.0 0.0  
Since 1 July snowfall 7.2 4.7  
Snow Depth 0.00 in    
Sea Level Pressure  
Sea Level Pressure 29.96 in    
Wind  
Wind Speed 7 mph (WSW)    
Max Wind Speed 17 mph    
Max Gust Speed 24 mph    
Visibility 10 miles    
Events      
T = Trace of Precipitation, MM = Missing Value Source: NWS Daily Summary

Daily Weather History Graph

Daily Weather History Graph

Search for Another Location

Airport:

Trip Planner

Search our weather history database for the weather conditions in past years. The results will help you decide how hot, cold, wet, or windy it might be!

Date:

Astronomy

May. 04, 2014 Rise Set
Actual Time 6:35 AM EDT 8:16 PM EDT
Civil Twilight 6:07 AM EDT 8:43 PM EDT
Nautical Twilight 5:35 AM EDT 9:16 PM EDT
Astronomical Twilight 5:00 AM EDT 9:51 PM EDT
Moon 10:58 AM EDT (5/4) 12:19 AM EDT (5/4)
Length of Visible Light 14h 35m
Length of Day
13h 41m
Waxing Crescent, 27% of the Moon is Illuminated
May 4
Waxing Crescent
May 6
First Quarter
May 14
Full
May 21
Last Quarter
May 28
New

Hourly Weather History & Observations

Time (EDT) Temp. Dew Point Humidity Pressure Visibility Wind Dir Wind Speed Gust Speed Precip Events Conditions
12:53 AM 57.0 °F 46.0 °F 67% 29.98 in 10.0 mi Calm Calm - N/A   Clear
1:53 AM 57.0 °F 45.0 °F 64% 29.97 in 10.0 mi WSW 5.8 mph - N/A   Clear
2:53 AM 55.9 °F 44.1 °F 64% 29.97 in 10.0 mi WSW 6.9 mph - N/A   Clear
3:53 AM 57.0 °F 44.1 °F 62% 29.97 in 10.0 mi WSW 5.8 mph - N/A   Clear
4:53 AM 55.9 °F 44.1 °F 64% 29.97 in 10.0 mi WSW 5.8 mph - N/A   Clear
5:53 AM 54.0 °F 45.0 °F 72% 29.99 in 10.0 mi SW 4.6 mph - N/A   Clear
6:53 AM 53.1 °F 45.0 °F 74% 30.01 in 10.0 mi Calm Calm - N/A   Clear
7:53 AM 57.9 °F 46.9 °F 67% 30.03 in 10.0 mi Calm Calm - N/A   Clear
8:53 AM 64.0 °F 48.9 °F 58% 30.03 in 10.0 mi SW 4.6 mph - N/A   Clear
9:53 AM 71.1 °F 48.9 °F 45% 30.03 in 10.0 mi SW 6.9 mph - N/A   Clear
10:53 AM 75.9 °F 48.0 °F 37% 30.03 in 10.0 mi WSW 10.4 mph - N/A   Clear
11:53 AM 78.1 °F 46.9 °F 33% 30.02 in 10.0 mi SW 5.8 mph - N/A   Clear
12:53 PM 79.0 °F 46.0 °F 31% 29.99 in 10.0 mi SW 11.5 mph 17.3 mph N/A   Clear
1:53 PM 82.0 °F 48.0 °F 30% 29.96 in 10.0 mi WSW 6.9 mph - N/A   Clear
2:53 PM 84.0 °F 46.9 °F 27% 29.93 in 10.0 mi WSW 5.8 mph 18.4 mph N/A   Clear
3:53 PM 86.0 °F 48.0 °F 27% 29.90 in 10.0 mi SW 12.7 mph 17.3 mph N/A   Clear
4:53 PM 87.1 °F 46.0 °F 24% 29.88 in 10.0 mi West 13.8 mph 23.0 mph N/A   Clear
5:53 PM 88.0 °F 42.1 °F 20% 29.86 in 10.0 mi WNW 11.5 mph 17.3 mph N/A   Clear
6:53 PM 86.0 °F 39.9 °F 20% 29.87 in 10.0 mi West 10.4 mph - N/A   Clear
7:53 PM 79.0 °F 44.1 °F 29% 29.88 in 10.0 mi West 5.8 mph - N/A   Clear
8:53 PM 73.9 °F 43.0 °F 33% 29.90 in 10.0 mi WNW 4.6 mph - N/A   Clear
9:53 PM 70.0 °F 45.0 °F 41% 29.92 in 10.0 mi SW 3.5 mph - N/A   Clear
10:53 PM 69.1 °F 45.0 °F 42% 29.94 in 10.0 mi WSW 6.9 mph - N/A   Clear
11:53 PM 70.0 °F 46.0 °F 42% 29.93 in 10.0 mi SW 5.8 mph - N/A   Clear